This demonstration page uses our WeatherBlox Daily Observations layout. Learn more.

Left ArrowRight Arrow

Hourly Observations for January 24, 2016

Temp ( °F °C ) Dew Point ( °F °C ) Humidity (%) Winds ( mph kmh ) Pressure ( in mb ) Visibility ( mi km ) Precip ( " mm )
3:53 am 03:53 Cloudy with Light Rain 74 23.3 64 17.8 71 71 SE 5 7 30.03 1017 10 16 0.00 0.00
4:53 am 04:53 Mostly Cloudy 73 22.8 63 17.2 71 71 ENE 5 7 30.05 1018 10 16 0.00 0.03
5:53 am 05:53 Clear 73 22.8 66 18.9 79 79 NE 5 7 30.06 1018 10 16 0.00 0.03
6:00 am 06:00 Clear 72 22 64 18 78 78 Calm 30.09 1019 10 16 0.00 0.00
6:50 am 06:50 Clear 72 22 63 17 73 73 Calm 30.06 1018 10 16 0.00 0.00
6:53 am 06:53 Clear 71 21.7 64 17.8 79 79 Calm 30.07 1018 10 16 0.00 0.03
7:50 am 07:50 Sunny 73 23 64 18 74 74 Calm 30.09 1019 10 16 0.00 0.00
7:53 am 07:53 Sunny with Light Rain 74 23.3 65 18.3 74 74 NNE 7 11 30.09 1019 10 16 0.00 0.00
8:25 am 08:25 Sunny 77 25 63 17 61 61 N 15 24 30.09 1019 10 16 0.00 0.00
8:50 am 08:50 Sunny 79 26 63 17 58 58 NNE 15 24 30.09 1019 10 16 0.00 0.00
8:53 am 08:53 Sunny with Light Rain 80 26.7 63 17.2 56 56 N 12 19 30.09 1019 10 16 0.00 0.00
9:50 am 09:50 Sunny 79 26 63 17 58 58 NNE 132 213 30.09 1019 10 16 0.00 0.00
9:53 am 09:53 Sunny 83 28.3 61 16.1 48 48 N 15 24 30.08 1019 10 16 0.00 0.00
10:53 am 10:53 Sunny with Light Rain 83 28.3 63 17.2 51 51 NW 12 19 30.08 1019 10 16 0.00 0.00
11:25 am 11:25 Partly Cloudy 84 29 64 18 51 51 SW 17 28 30.06 1018 10 16 0.00 0.00
11:45 am 11:45 Partly Cloudy 86 30 64 18 49 49 S 17 28 30.06 1018 10 16 0.00 0.00
11:53 am 11:53 Sunny 83 28.3 66 18.9 57 57 S 13 20 30.06 1018 10 16 0.00 0.00
12:53 pm 12:53 Partly Cloudy 86 30 66 19 52 52 S 14 22 30.03 1017 10 16 0.00 0.00
1:53 pm 13:53 Partly Cloudy 82 27.8 68 20 63 63 S 16 26 30.00 1016 10 16 0.00 0.00
2:53 pm 14:53 Partly Cloudy 82 27.8 69 20.6 65 65 SSW 14 22 29.99 1016 10 16 0.00 0.00
3:53 pm 15:53 Sunny 82 27.8 69 20.6 65 65 SSW 10 17 30.00 1016 10 16 0.00 0.00
4:53 pm 16:53 Sunny 81 27.2 68 20 65 65 S 10 17 30.00 1016 10 16 0.00 0.00
5:53 pm 17:53 Mostly Sunny 79 26.1 68 20 69 69 SSE 9 15 30.01 1016 10 16 0.00 0.00
6:53 pm 18:53 Mostly Clear 78 25.6 68 20 71 71 SE 9 15 30.02 1017 10 16 0.00 0.00
7:53 pm 19:53 Clear 77 25 68 20 74 74 VRB 5 7 30.04 1017 10 16 0.00 0.00
8:53 pm 20:53 Partly Cloudy 76 24.4 68 20 77 77 SE 3 6 30.06 1018 10 16 0.00 0.00
9:53 pm 21:53 Clear 77 25 64 17.8 64 64 SE 8 13 30.06 1018 10 16 0.00 0.00
10:53 pm 22:53 Mostly Clear 75 23.9 66 18.9 74 74 SSW 3 6 30.06 1018 10 16 0.00 0.00
11:53 pm 23:53 Clear 74 23.3 66 18.9 76 76 SE 3 6 30.05 1018 10 16 0.00 0.00

Powered by Vaisala Xweather